This is the latest recevied weather packets stored in our database for station/object N6RDS. If no packets are shown the sender has not sent any weather packets the latest 10 day(s).
| Time | Temp. | Humidity | Pressure | Rain* | Wind** | Luminosity | Snow |
|---|---|---|---|---|---|---|---|
| 1777906187 | 9.44° C | 56% | 1022.6 hPa | 0 mm | - | 91 W/m² | - |
| 1777905883 | 9.44° C | 55% | 1022.4 hPa | 0 mm | - | 87 W/m² | - |
| 1777905580 | 9.44° C | 55% | 1022.7 hPa | 0 mm | - | 78 W/m² | - |
| 1777905277 | 9.44° C | 53% | 1022.7 hPa | 0 mm | - | 73 W/m² | - |
| 1777904975 | 9.44° C | 53% | 1022.6 hPa | 0 mm | - | 79 W/m² | - |
| 1777904672 | 8.89° C | 53% | 1022.3 hPa | 0 mm | - | 71 W/m² | - |
| 1777904368 | 8.89° C | 53% | 1022.6 hPa | 0 mm | - | 68 W/m² | - |
| 1777904065 | 8.89° C | 53% | 1022.6 hPa | 0 mm | - | 65 W/m² | - |
| 1777903762 | 8.89° C | 53% | 1022.6 hPa | 0 mm | - | 57 W/m² | - |
| 1777903458 | 8.89° C | 55% | 1022.7 hPa | 0 mm | - | 52 W/m² | - |
| 1777903155 | 8.89° C | 54% | 1022.2 hPa | 0 mm | - | 52 W/m² | - |
| 1777902851 | 8.89° C | 55% | 1022.2 hPa | 0 mm | - | 45 W/m² | - |
| 1777902549 | 8.33° C | 55% | 1022.6 hPa | 0 mm | - | 38 W/m² | - |
| 1777902245 | 8.33° C | 54% | 1022.6 hPa | 0 mm | - | 37 W/m² | - |
| 1777901944 | 8.33° C | 55% | 1022.7 hPa | 0 mm | - | 29 W/m² | - |
| 1777901641 | 8.33° C | 55% | 1022.6 hPa | 0 mm | - | 27 W/m² | - |
| 1777901338 | 8.33° C | 54% | 1022.3 hPa | 0 mm | - | 25 W/m² | - |
| 1777901035 | 8.33° C | 55% | 1022.2 hPa | 0 mm | - | 22 W/m² | - |
| 1777900733 | 8.33° C | 55% | 1022.3 hPa | 0 mm | - | 19 W/m² | - |
| 1777900429 | 7.78° C | 56% | 1022.4 hPa | 0 mm | - | 19 W/m² | - |
| 1777900127 | 7.78° C | 56% | 1021.7 hPa | 0 mm | - | 15 W/m² | - |
| 1777899823 | 7.78° C | 55% | 1021.8 hPa | 0 mm | - | 11 W/m² | - |
| 1777899520 | 7.78° C | 56% | 1022.1 hPa | 0 mm | - | 10 W/m² | - |
| 1777899218 | 7.78° C | 56% | 1022 hPa | 0 mm | - | 8 W/m² | - |
| 1777898915 | 7.78° C | 56% | 1022 hPa | 0 mm | - | 5 W/m² | - |
* Rain latest hour (hover to see other rain measurements)
** Current wind speed in m/s (hover to see current wind gust speed)